Home > Weather > Winterthur > Past weeks

Flag for Switzerland Past Weather in Winterthur, Switzerland — Yesterday and Last 2 Weeks

Now
79 °F

Passing clouds.


Feels Like: 80 °F
Forecast: 54 / 77 °F
Wind: 10 mph from West

Location: Zurich-Kloten

Current Time: Jul 27, 2016 at 5:31:08 PM

Latest Report: Jul 27, 2016 at 4:50 PM


Visibility: N/A

Pressure: 30.07 "Hg

Humidity: 48%

Dew Point: 57 °F

Location of WinterthurLocation

Past Weather in Winterthur — Graph

°F

Winterthur Temperature Yesterday

Maximum temperature yesterday: 82 °F (at 4:50 PM)
Minimum temperature yesterday: 61 °F (at 5:50 AM)
Average temperature yesterday: 71 °F

High & Low Weather Summary for the Past Weeks

 TemperatureHumidityPressure
High91 °F (Jul 20, 5:20 PM)100% (Jul 12, 9:20 PM)30.36 "Hg (Jul 12, 9:20 PM)
Low45 °F (Jul 16, 3:50 AM)31% (Jul 20, 3:20 PM)29.98 "Hg (Jul 12, 6:20 PM)
Average67 °F76%30.13 "Hg
* Reported Jul 12 4:20 PM — Jul 27 4:20 PM, Winterthur, Weather by CustomWeather, © 2016

Note: Actual official high and low records may vary slightly from our data, if they occured in-between our weather recording intervals... More about our weather records

Advertising

Winterthur Weather History for the Previous 24 Hours

Scroll right to see more
 ConditionsComfort  
Time TempWeatherWind HumidityBarometerVisibility
4:20 PM
Wed, Jul 27
79 °FPassing clouds.9 mph51%30.07 "HgN/A
3:50 PM79 °FPassing clouds.10 mph51%30.07 "HgN/A
3:20 PM77 °FPassing clouds.8 mph57%30.07 "HgN/A
2:50 PM75 °FScattered clouds.8 mph65%30.07 "HgN/A
2:20 PM75 °FPassing clouds.6 mph61%30.07 "HgN/A
1:50 PM75 °FPassing clouds.3 mph69%30.09 "HgN/A
1:20 PM73 °FPassing clouds.2 mph74%30.09 "HgN/A
12:50 PM72 °FScattered clouds.2 mph78%30.09 "HgN/A
12:20 PM70 °FSprinkles. Broken clouds.2 mph83%30.09 "HgN/A
11:50 AM72 °FScattered showers. Partly sunny.5 mph78%30.12 "HgN/A
11:20 AM70 °FSprinkles. Partly sunny.3 mph83%30.12 "HgN/A
10:50 AM70 °FPartly sunny.5 mph83%30.12 "Hg6 mi
10:20 AM68 °FPartly sunny.3 mph83%30.12 "Hg6 mi
9:50 AM68 °FPartly sunny.1 mph83%30.12 "Hg5 mi
9:20 AM68 °FPartly sunny.2 mph83%30.12 "Hg5 mi
8:50 AM66 °FPartly sunny.1 mph88%30.12 "Hg4 mi
8:20 AM64 °FPartly sunny.2 mph94%30.12 "HgN/A
7:50 AM64 °FPartly sunny.1 mph94%30.12 "HgN/A
7:20 AM63 °FBroken clouds.No wind100%30.09 "HgN/A
6:50 AM63 °FFog.1 mph100%30.09 "Hg5 mi
6:20 AM63 °FFog.1 mph94%30.09 "Hg1 mi
5:50 AM63 °FPassing clouds.1 mph94%30.09 "Hg1 mi
5:20 AM61 °FPassing clouds.1 mph100%30.09 "Hg1 mi
4:50 AM63 °FPassing clouds.2 mph94%30.09 "Hg1 mi
4:20 AM63 °FMild.No wind94%30.09 "Hg1 mi
3:50 AM63 °FFog.2 mph94%30.09 "Hg5 mi
3:20 AM61 °FPassing clouds.2 mph100%30.09 "HgN/A
2:50 AM63 °FClear.2 mph94%30.09 "Hg10 mi
2:20 AM63 °FClear.2 mph94%30.12 "Hg10 mi
1:50 AM63 °FClear.2 mph94%30.12 "Hg10 mi
1:20 AM63 °FClear.5 mph94%30.12 "Hg10 mi
12:50 AM64 °FPassing clouds.2 mph94%30.12 "HgN/A
12:20 AM64 °FSprinkles. Partly cloudy.3 mph94%30.12 "HgN/A
11:50 PM
Tue, Jul 26
64 °FPartly cloudy.5 mph94%30.15 "HgN/A
11:20 PM66 °FPassing clouds.3 mph83%30.12 "HgN/A
10:50 PM66 °FThunderstorms. Partly cloudy.12 mph78%30.12 "HgN/A
10:20 PM68 °FThunderstorms. Partly cloudy.20 mph73%30.15 "HgN/A
9:50 PM73 °FThunderstorms. Broken clouds.6 mph69%30.12 "HgN/A
9:20 PM73 °FThundershowers. Scattered clouds.5 mph69%30.09 "HgN/A
8:50 PM75 °FThundershowers. Scattered clouds.3 mph65%30.09 "HgN/A
8:20 PM77 °FScattered showers. Scattered clouds.3 mph61%30.09 "HgN/A
7:50 PM79 °FScattered clouds.7 mph58%30.09 "HgN/A
7:20 PM81 °FPassing clouds.2 mph58%30.09 "HgN/A
6:50 PM81 °FPassing clouds.2 mph54%30.07 "HgN/A
6:20 PM82 °FScattered clouds.5 mph48%30.09 "HgN/A
5:50 PM81 °FScattered clouds.6 mph51%30.09 "HgN/A
5:20 PM81 °FPassing clouds.6 mph51%30.09 "HgN/A
Weather by CustomWeather, © 2016

See weather overviewHow to use our weather pages